PAL104 RPLL-KSFO

Flight info

Callsign PAL104
Flight time N/A
Altitude 31000
Route JOM2R JOM A590 AVLAS/N0495F330 A590 MDE V75 CANAI DCT UKATA DCT 34N150E 40N160E/N0485F350 43N170E 44N180E 44N170W 44N160W 43N150W/N0470F370 41N140W 39N130W DCT DACEM DCT PAINT DCT PIRAT PIRAT3
Aircraft B77W/H-SDE1E2E3FGHIJ2J3J4J5M1RWXY/LB1D1

Departure

Time 2026-05-05 17:23
Airport Ninoy Aquino International Airport (RPLL)

Arrival

Time N/A
Airport San Francisco International Airport (KSFO)
Time Latitude Longitude Altitude Speed Heading
2026-05-05 16:57 14.50503 121.00719 74 ft 0 kts 277°
2026-05-05 17:12 14.50502 121.00729 65 ft 4 kts 277°
2026-05-05 17:12 14.50498 121.00753 65 ft 1 kts 277°
2026-05-05 17:13 14.50495 121.00777 63 ft 4 kts 277°
2026-05-05 17:13 14.50496 121.00803 63 ft 4 kts 241°
2026-05-05 17:13 14.50512 121.00816 63 ft 4 kts 172°
2026-05-05 17:13 14.50538 121.00808 63 ft 4 kts 153°
2026-05-05 17:14 14.50554 121.00799 63 ft 0 kts 150°
2026-05-05 17:18 14.50552 121.00800 63 ft 2 kts 150°
2026-05-05 17:18 14.50519 121.00817 63 ft 6 kts 159°
2026-05-05 17:19 14.50479 121.00825 63 ft 6 kts 176°
2026-05-05 17:19 14.50421 121.00814 64 ft 11 kts 197°
2026-05-05 17:19 14.50360 121.00762 64 ft 11 kts 236°
2026-05-05 17:19 14.50320 121.00693 65 ft 12 kts 240°
2026-05-05 17:20 14.50266 121.00595 64 ft 20 kts 240°
2026-05-05 17:20 14.50194 121.00466 64 ft 21 kts 240°
2026-05-05 17:20 14.50123 121.00338 62 ft 20 kts 240°
2026-05-05 17:20 14.50054 121.00216 63 ft 20 kts 240°
2026-05-05 17:21 14.49987 121.00095 65 ft 17 kts 240°
2026-05-05 17:21 14.49940 121.00011 63 ft 10 kts 240°
2026-05-05 17:21 14.49895 120.99967 66 ft 9 kts 191°
2026-05-05 17:22 14.49805 121.00037 65 ft 9 kts 90°
2026-05-05 17:22 14.49826 121.00083 67 ft 0 kts 58°
2026-05-05 17:22 14.49875 121.00168 65 ft 40 kts 60°
2026-05-05 17:23 14.50142 121.00652 61 ft 113 kts 60°
2026-05-05 17:23 14.50646 121.01556 67 ft 176 kts 60°
2026-05-05 17:23 14.51303 121.02786 279 ft 203 kts 63°
2026-05-05 17:23 14.52016 121.04059 825 ft 206 kts 60°
2026-05-05 17:24 14.52730 121.05311 1572 ft 200 kts 59°
2026-05-05 17:24 14.53436 121.06555 2051 ft 202 kts 59°
2026-05-05 17:24 14.54137 121.07827 2414 ft 205 kts 60°
2026-05-05 17:24 14.54843 121.09107 2851 ft 205 kts 60°
2026-05-05 17:25 14.55548 121.10384 3290 ft 208 kts 61°
2026-05-05 17:25 14.56039 121.11271 3370 ft 221 kts 61°
2026-05-05 17:25 14.57093 121.13225 3608 ft 244 kts 68°
2026-05-05 17:25 14.57461 121.14975 3781 ft 255 kts 86°
2026-05-05 17:26 14.57620 121.16825 4253 ft 262 kts 84°
2026-05-05 17:26 14.57830 121.18707 4869 ft 264 kts 84°
2026-05-05 17:26 14.58047 121.20604 5485 ft 268 kts 84°
2026-05-05 17:26 14.58268 121.22526 6063 ft 271 kts 83°
2026-05-05 17:27 14.58491 121.24468 6631 ft 274 kts 83°
2026-05-05 17:27 14.58716 121.26433 7161 ft 278 kts 84°
2026-05-05 17:27 14.58940 121.28414 7741 ft 279 kts 84°
2026-05-05 17:27 14.59167 121.30419 8310 ft 282 kts 84°
2026-05-05 17:28 14.59394 121.32437 8870 ft 284 kts 84°
2026-05-05 17:28 14.59622 121.34467 9431 ft 287 kts 84°
2026-05-05 17:28 14.59853 121.36525 9973 ft 289 kts 84°
2026-05-05 17:28 14.60079 121.38543 10381 ft 297 kts 84°
2026-05-05 17:29 14.60325 121.40740 10504 ft 317 kts 84°
2026-05-05 17:29 14.60585 121.43061 10652 ft 336 kts 84°
2026-05-05 17:29 14.60860 121.45518 10799 ft 354 kts 84°
2026-05-05 17:29 14.61151 121.48110 11036 ft 369 kts 84°
2026-05-05 17:30 14.61449 121.50775 11449 ft 378 kts 84°
2026-05-05 17:30 14.61754 121.53495 12013 ft 382 kts 84°
2026-05-05 17:30 14.62059 121.56225 12723 ft 384 kts 84°
2026-05-05 17:30 14.62366 121.58984 13353 ft 387 kts 84°
2026-05-05 17:31 14.62675 121.61749 13993 ft 389 kts 84°
2026-05-05 17:31 14.62985 121.64535 14483 ft 393 kts 84°
2026-05-05 17:31 14.63299 121.67362 14879 ft 401 kts 84°
2026-05-05 17:31 14.63620 121.70249 15284 ft 408 kts 84°
2026-05-05 17:32 14.63945 121.73173 15795 ft 411 kts 84°
2026-05-05 17:32 14.64270 121.76103 16333 ft 413 kts 84°
2026-05-05 17:32 14.64598 121.79067 16818 ft 417 kts 84°
2026-05-05 17:32 14.64928 121.82054 17251 ft 422 kts 84°
2026-05-05 17:33 14.65262 121.85078 17727 ft 425 kts 84°
2026-05-05 17:33 14.65594 121.88088 18179 ft 429 kts 84°
2026-05-05 17:33 14.65938 121.91207 18584 ft 432 kts 84°
2026-05-05 17:33 14.66278 121.94302 18997 ft 435 kts 84°
2026-05-05 17:34 14.66620 121.97416 19426 ft 438 kts 84°